TimeCST,TemperatureF,Dew PointF,Humidity,Sea Level PressureIn,VisibilityMPH,Wind Direction,Wind SpeedMPH,Gust SpeedMPH,PrecipitationIn,Events,Conditions,WindDirDegrees,DateUTC
12:04 AM,19.4,15.8,86,30.13,2.5,ENE,3.5,-,0.00,Snow,Light Snow,70,2012-12-28 06:04:00
12:41 AM,19.4,15.8,86,30.11,1.5,ENE,5.8,-,0.00,Snow,Light Snow,60,2012-12-28 06:41:00
12:53 AM,19.9,16.0,85,30.16,1.8,ENE,5.8,-,0.00,Snow,Light Snow,60,2012-12-28 06:53:00
1:02 AM,19.4,15.8,86,30.11,2.5,NE,4.6,-,0.00,Snow,Light Snow,50,2012-12-28 07:02:00
1:53 AM,19.0,16.0,88,30.16,6.0,Calm,Calm,-,0.00,,Overcast,0,2012-12-28 07:53:00
2:09 AM,19.4,15.8,86,30.11,1.8,NE,3.5,-,0.00,Snow,Light Snow,50,2012-12-28 08:09:00
2:20 AM,19.4,15.8,86,30.11,1.2,ENE,3.5,-,0.01,Snow,Light Snow,60,2012-12-28 08:20:00
2:53 AM,19.0,16.0,88,30.15,1.8,NE,4.6,-,0.01,Snow,Light Snow,50,2012-12-28 08:53:00
3:53 AM,19.9,16.0,85,30.14,3.0,NE,5.8,-,0.00,Snow,Light Snow,50,2012-12-28 09:53:00
4:03 AM,19.4,15.8,86,30.08,2.0,NE,5.8,-,0.00,Snow,Light Snow,50,2012-12-28 10:03:00
4:13 AM,19.4,15.8,86,30.08,1.8,NE,5.8,-,0.00,Snow,Light Snow,50,2012-12-28 10:13:00
4:31 AM,19.4,15.8,86,30.07,2.0,NE,5.8,-,0.00,Snow,Light Snow,50,2012-12-28 10:31:00
4:53 AM,19.0,16.0,88,30.12,2.0,NE,5.8,-,0.00,Snow,Light Snow,50,2012-12-28 10:53:00
5:53 AM,19.0,15.1,85,30.10,3.0,NNE,4.6,-,0.00,Snow,Light Snow,30,2012-12-28 11:53:00
6:53 AM,19.0,15.1,85,30.11,4.0,NNE,3.5,-,0.00,,Overcast,30,2012-12-28 12:53:00
7:53 AM,19.0,15.1,85,30.10,5.0,NE,4.6,-,0.00,,Overcast,40,2012-12-28 13:53:00
8:53 AM,19.0,15.1,85,30.10,5.0,NE,4.6,-,N/A,,Overcast,50,2012-12-28 14:53:00
9:33 AM,19.4,15.8,86,30.06,1.8,ENE,5.8,-,0.00,Snow,Light Snow,60,2012-12-28 15:33:00
9:43 AM,19.4,15.8,86,30.06,1.5,NE,5.8,-,0.00,Snow,Light Snow,50,2012-12-28 15:43:00
9:53 AM,19.9,16.0,85,30.12,1.2,ENE,4.6,-,0.00,Snow,Light Snow,60,2012-12-28 15:53:00
10:37 AM,21.2,15.8,80,30.07,2.0,Calm,Calm,-,0.00,Snow,Light Snow,0,2012-12-28 16:37:00
10:53 AM,21.0,16.0,81,30.11,3.0,ENE,3.5,-,0.00,Snow,Light Snow,60,2012-12-28 16:53:00
11:40 AM,21.2,15.8,80,30.04,3.0,ENE,4.6,-,0.00,,Haze,70,2012-12-28 17:40:00
12:25 PM,23.0,15.8,74,30.02,7.0,NE,4.6,-,N/A,,Mostly Cloudy,50,2012-12-28 18:25:00
12:35 PM,23.0,15.8,74,30.02,7.0,ENE,3.5,-,N/A,,Mostly Cloudy,60,2012-12-28 18:35:00
12:53 PM,24.1,17.1,75,30.05,8.0,North,4.6,-,N/A,,Mostly Cloudy,360,2012-12-28 18:53:00
1:51 PM,24.8,17.6,74,29.99,6.0,Calm,Calm,-,N/A,,Haze,0,2012-12-28 19:51:00
1:53 PM,24.1,17.1,75,30.04,6.0,NNE,4.6,-,N/A,,Haze,20,2012-12-28 19:53:00
2:53 PM,24.1,16.0,71,30.04,6.0,North,5.8,-,N/A,,Haze,360,2012-12-28 20:53:00
3:53 PM,23.0,16.0,74,30.04,8.0,NNE,5.8,-,N/A,,Overcast,30,2012-12-28 21:53:00
4:05 PM,23.0,15.8,74,30.00,9.0,North,5.8,-,N/A,,Overcast,10,2012-12-28 22:05:00
4:34 PM,23.0,15.8,74,29.99,8.0,North,3.5,-,N/A,,Overcast,360,2012-12-28 22:34:00
4:53 PM,21.9,16.0,78,30.04,10.0,North,4.6,-,N/A,,Mostly Cloudy,360,2012-12-28 22:53:00
5:04 PM,21.2,15.8,80,30.00,10.0,North,3.5,-,N/A,,Scattered Clouds,360,2012-12-28 23:04:00
5:53 PM,19.9,15.1,81,30.05,10.0,North,4.6,-,N/A,,Mostly Cloudy,350,2012-12-28 23:53:00
6:01 PM,19.4,15.8,86,30.01,10.0,North,3.5,-,N/A,,Mostly Cloudy,360,2012-12-29 00:01:00
6:39 PM,19.4,15.8,86,30.02,10.0,NNW,3.5,-,N/A,,Mostly Cloudy,340,2012-12-29 00:39:00
6:53 PM,19.0,15.1,85,30.06,9.0,NNW,3.5,-,N/A,,Scattered Clouds,330,2012-12-29 00:53:00
7:53 PM,18.0,14.0,84,30.06,6.0,NNW,4.6,-,N/A,,Overcast,330,2012-12-29 01:53:00
8:53 PM,17.1,14.0,88,30.06,6.0,NNW,4.6,-,N/A,,Clear,330,2012-12-29 02:53:00
10:53 PM,14.0,10.9,88,30.07,6.0,NNW,5.8,-,N/A,,Clear,330,2012-12-29 04:53:00
11:53 PM,14.0,10.9,88,30.06,6.0,NW,5.8,-,N/A,,Clear,320,2012-12-29 05:53:00